| time (UTC) | temp F | wind direction | speed knots | gust knots | rain 1hr in | rain 24hr in | rain mn in | humidity % | barometer mb |
| 20260504151039 | 52 | 290 | 7.0 | 14.8 | 0.00 | 0.01 | 0.01 | 59 | 1005.5 |
| 20260504150540 | 53 | 279 | 7.0 | 14.8 | 0.00 | 0.01 | 0.01 | 58 | 1005.5 |
| 20260504141039 | 53 | 266 | 4.3 | 14.8 | 0.00 | 0.01 | 0.01 | 58 | 1004.7 |
| 20260504140544 | 53 | 259 | 6.1 | 14.8 | 0.00 | 0.01 | 0.01 | 59 | 1004.7 |
| 20260504130540 | 52 | 174 | 3.5 | 10.4 | 0.00 | 0.01 | 0.01 | 62 | 1004.8 |
| 20260504110539 | 43 | 157 | 2.6 | 7.0 | 0.00 | 0.01 | 0.01 | 84 | 1006.0 |
| 20260504100538 | 41 | 152 | 1.7 | 7.0 | 0.00 | 0.01 | 0.01 | 85 | 1006.2 |
| 20260504081549 | 40 | 142 | 1.7 | 7.0 | 0.00 | 0.01 | 0.01 | 81 | 1006.1 |
| 20260504081038 | 40 | 179 | 1.7 | 7.0 | 0.00 | 0.01 | 0.01 | 81 | 1006.2 |
| 20260504080542 | 40 | 173 | 1.7 | 7.0 | 0.00 | 0.01 | 0.01 | 82 | 1006.4 |
| 20260504050539 | 36 | 0 | 0.0 | 2.6 | 0.00 | 0.00 | 0.00 | 76 | 1006.6 |
| 20260504045538 | 36 | 148 | 0.9 | 5.2 | 0.00 | 0.00 | 0.00 | 74 | 1006.7 |
| 20260504045037 | 36 | 0 | 2.6 | 5.2 | 0.00 | 0.00 | 0.00 | 72 | 1006.8 |
| 20260504044551 | 36 | 138 | 0.9 | 3.5 | 0.00 | 0.00 | 0.00 | 75 | 1006.8 |
| 20260504044039 | 36 | 138 | 1.7 | 6.1 | 0.00 | 0.00 | 0.00 | 73 | 1006.8 |
| 20260504043539 | 36 | 144 | 0.9 | 6.1 | 0.00 | 0.00 | 0.00 | 72 | 1006.9 |
| 20260504043055 | 36 | 142 | 0.9 | 4.3 | 0.00 | 0.00 | 0.00 | 74 | 1007.0 |
| 20260504042540 | 36 | 0 | 1.7 | 4.3 | 0.00 | 0.00 | 0.00 | 72 | 1007.1 |
| 20260504042040 | 37 | 153 | 0.9 | 5.2 | 0.00 | 0.00 | 0.00 | 71 | 1007.1 |
| 20260504041548 | 36 | 150 | 0.9 | 5.2 | 0.00 | 0.00 | 0.00 | 71 | 1007.0 |
| 20260504041038 | 36 | 152 | 1.7 | 5.2 | 0.00 | 0.00 | 0.00 | 70 | 1006.9 |
| 20260504040536 | 36 | 171 | 2.6 | 5.2 | 0.00 | 0.00 | 0.00 | 70 | 1007.0 |
| 20260504040054 | 36 | 150 | 2.6 | 5.2 | 0.00 | 0.00 | 0.00 | 71 | 1007.0 |
| 20260504035538 | 36 | 150 | 1.7 | 4.3 | 0.00 | 0.00 | 0.00 | 71 | 1007.0 |
| 20260504035040 | 36 | 143 | 1.7 | 4.3 | 0.00 | 0.00 | 0.00 | 71 | 1006.9 |
| 20260504034553 | 36 | 161 | 2.6 | 4.3 | 0.00 | 0.00 | 0.00 | 71 | 1006.9 |
| 20260504034043 | 36 | 164 | 2.6 | 6.1 | 0.00 | 0.00 | 0.00 | 70 | 1006.9 |
| 20260504033540 | 37 | 165 | 2.6 | 6.1 | 0.00 | 0.00 | 0.00 | 69 | 1007.0 |
| 20260504033049 | 37 | 169 | 2.6 | 6.1 | 0.00 | 0.00 | 0.00 | 69 | 1007.0 |
| 20260504032541 | 37 | 159 | 3.5 | 7.0 | 0.00 | 0.00 | 0.00 | 68 | 1006.9 |
| 20260504032041 | 37 | 187 | 3.5 | 7.8 | 0.00 | 0.00 | 0.00 | 69 | 1007.0 |
| 20260504031548 | 37 | 147 | 3.5 | 7.8 | 0.00 | 0.00 | 0.00 | 69 | 1006.9 |
| 20260504031040 | 37 | 172 | 2.6 | 7.0 | 0.00 | 0.00 | 0.00 | 69 | 1007.0 |
| 20260504030539 | 37 | 140 | 2.6 | 7.0 | 0.00 | 0.00 | 0.00 | 69 | 1007.0 |
| 20260504030051 | 37 | 198 | 3.5 | 6.1 | 0.00 | 0.00 | 0.00 | 68 | 1007.1 |
| 20260504025540 | 37 | 161 | 3.5 | 6.1 | 0.00 | 0.00 | 0.00 | 68 | 1007.1 |
| 20260504025039 | 37 | 141 | 3.5 | 6.1 | 0.00 | 0.00 | 0.00 | 68 | 1007.2 |
| 20260504024551 | 37 | 135 | 3.5 | 7.0 | 0.00 | 0.00 | 0.00 | 68 | 1007.2 |
| 20260504024041 | 37 | 162 | 3.5 | 7.8 | 0.00 | 0.00 | 0.00 | 68 | 1007.2 |
| 20260504023539 | 37 | 148 | 3.5 | 7.8 | 0.00 | 0.00 | 0.00 | 68 | 1007.1 |
| 20260504023045 | 37 | 153 | 3.5 | 7.0 | 0.00 | 0.00 | 0.00 | 68 | 1007.1 |
| 20260504022541 | 38 | 170 | 2.6 | 7.0 | 0.00 | 0.00 | 0.00 | 68 | 1007.1 |
| 20260504022041 | 38 | 151 | 3.5 | 7.0 | 0.00 | 0.00 | 0.00 | 68 | 1007.1 |
| 20260504021552 | 38 | 175 | 3.5 | 7.0 | 0.00 | 0.00 | 0.00 | 67 | 1007.1 |
| 20260504021039 | 38 | 172 | 2.6 | 6.1 | 0.00 | 0.00 | 0.00 | 67 | 1007.2 |
| 20260504020540 | 38 | 169 | 2.6 | 6.1 | 0.00 | 0.00 | 0.00 | 66 | 1007.2 |
| 20260504020046 | 39 | 154 | 3.5 | 6.1 | 0.00 | 0.00 | 0.00 | 66 | 1007.3 |
| 20260504015540 | 39 | 152 | 3.5 | 6.1 | 0.00 | 0.00 | 0.00 | 66 | 1007.3 |
| 20260504015040 | 39 | 136 | 3.5 | 6.1 | 0.00 | 0.00 | 0.00 | 65 | 1007.2 |
| 20260504014548 | 39 | 162 | 3.5 | 6.1 | 0.00 | 0.00 | 0.00 | 65 | 1007.3 |
| 20260504014039 | 40 | 164 | 3.5 | 6.1 | 0.00 | 0.00 | 0.00 | 64 | 1007.2 |
| 20260504013539 | 40 | 164 | 3.5 | 5.2 | 0.00 | 0.00 | 0.00 | 63 | 1007.2 |
| 20260504013101 | 40 | 153 | 1.7 | 4.3 | 0.00 | 0.00 | 0.00 | 60 | 1007.1 |
| 20260504012539 | 41 | 151 | 1.7 | 4.3 | 0.00 | 0.00 | 0.00 | 59 | 1007.0 |
| 20260504012039 | 41 | 169 | 1.7 | 4.3 | 0.00 | 0.00 | 0.00 | 58 | 1007.1 |
| 20260504011545 | 42 | 183 | 1.7 | 3.5 | 0.00 | 0.00 | 0.00 | 56 | 1007.0 |
| 20260504011039 | 42 | 226 | 0.9 | 2.6 | 0.00 | 0.00 | 0.00 | 54 | 1006.9 |
| 20260504010539 | 43 | 226 | 0.9 | 2.6 | 0.00 | 0.00 | 0.00 | 53 | 1006.9 |
| 20260504010043 | 43 | 227 | 0.9 | 2.6 | 0.00 | 0.00 | 0.00 | 53 | 1006.8 |
| 20260504005546 | 43 | 227 | 0.9 | 3.5 | 0.00 | 0.00 | 0.00 | 53 | 1006.7 |
| 20260504005039 | 43 | 227 | 0.9 | 3.5 | 0.00 | 0.00 | 0.00 | 53 | 1006.7 |
| 20260504004546 | 43 | 227 | 0.9 | 3.5 | 0.00 | 0.00 | 0.00 | 52 | 1006.8 |
| 20260504004036 | 43 | 284 | 1.7 | 3.5 | 0.00 | 0.00 | 0.00 | 51 | 1006.6 |
| 20260504003538 | 43 | 287 | 1.7 | 3.5 | 0.00 | 0.00 | 0.00 | 51 | 1006.6 |
| 20260504003054 | 44 | 287 | 1.7 | 3.5 | 0.00 | 0.00 | 0.00 | 50 | 1006.6 |
| 20260504002538 | 44 | 287 | 0.9 | 2.6 | 0.00 | 0.00 | 0.00 | 50 | 1006.5 |
| 20260504002037 | 44 | 287 | 0.9 | 2.6 | 0.00 | 0.00 | 0.00 | 49 | 1006.5 |
| 20260504001552 | 44 | 287 | 0.9 | 3.5 | 0.00 | 0.00 | 0.00 | 49 | 1006.5 |
| 20260504001041 | 44 | 287 | 0.9 | 3.5 | 0.00 | 0.00 | 0.00 | 49 | 1006.5 |
| 20260504000538 | 45 | 287 | 1.7 | 3.5 | 0.00 | 0.00 | 0.00 | 49 | 1006.4 |
| 20260504000106 | 45 | 278 | 0.9 | 3.5 | 0.00 | 0.00 | 0.00 | 49 | 1006.5 |
| 20260503235537 | 45 | 302 | 0.9 | 4.3 | 0.00 | 0.02 | 0.00 | 49 | 1006.5 |
| 20260503235039 | 46 | 313 | 0.9 | 4.3 | 0.00 | 0.02 | 0.00 | 49 | 1006.4 |
| 20260503234549 | 46 | 297 | 1.7 | 5.2 | 0.00 | 0.02 | 0.00 | 48 | 1006.4 |
| 20260503234039 | 46 | 296 | 1.7 | 7.0 | 0.00 | 0.02 | 0.00 | 48 | 1006.4 |
| 20260503233539 | 46 | 307 | 1.7 | 7.8 | 0.00 | 0.02 | 0.00 | 48 | 1006.4 |
| 20260503233052 | 46 | 327 | 3.5 | 8.7 | 0.00 | 0.02 | 0.00 | 46 | 1006.4 |
| 20260503232540 | 46 | 258 | 3.5 | 10.4 | 0.00 | 0.02 | 0.00 | 46 | 1006.4 |
| 20260503232038 | 46 | 277 | 2.6 | 10.4 | 0.00 | 0.02 | 0.00 | 47 | 1006.2 |
| 20260503231554 | 47 | 302 | 4.3 | 10.4 | 0.00 | 0.02 | 0.00 | 47 | 1006.4 |
| 20260503231038 | 47 | 323 | 2.6 | 10.4 | 0.00 | 0.02 | 0.00 | 47 | 1006.4 |
| 20260503230542 | 47 | 302 | 5.2 | 10.4 | 0.00 | 0.02 | 0.00 | 45 | 1006.3 |
| 20260503230042 | 48 | 338 | 3.5 | 10.4 | 0.00 | 0.02 | 0.00 | 45 | 1006.3 |
| 20260503225538 | 48 | 300 | 6.1 | 12.2 | 0.00 | 0.03 | 0.00 | 43 | 1006.3 |
| 20260503225038 | 48 | 297 | 4.3 | 12.2 | 0.00 | 0.03 | 0.00 | 45 | 1006.3 |
| 20260503224558 | 48 | 289 | 5.2 | 13.0 | 0.00 | 0.03 | 0.00 | 44 | 1006.4 |
| 20260503224038 | 48 | 284 | 5.2 | 13.0 | 0.00 | 0.03 | 0.00 | 46 | 1006.4 |
| 20260503223538 | 48 | 294 | 2.6 | 13.0 | 0.00 | 0.03 | 0.00 | 46 | 1006.4 |
| 20260503223050 | 49 | 317 | 5.2 | 13.0 | 0.00 | 0.03 | 0.00 | 44 | 1006.2 |
| 20260503222539 | 49 | 308 | 5.2 | 11.3 | 0.00 | 0.03 | 0.00 | 43 | 1006.2 |
| 20260503222038 | 48 | 324 | 3.5 | 12.2 | 0.00 | 0.03 | 0.00 | 47 | 1006.2 |
| 20260503221556 | 47 | 327 | 6.1 | 12.2 | 0.00 | 0.03 | 0.00 | 46 | 1006.2 |
| 20260503221041 | 47 | 323 | 3.5 | 13.0 | 0.00 | 0.03 | 0.00 | 46 | 1006.2 |
| 20260503220539 | 47 | 328 | 7.0 | 13.0 | 0.00 | 0.03 | 0.00 | 47 | 1006.2 |
| 20260503220052 | 47 | 305 | 6.1 | 16.5 | 0.00 | 0.03 | 0.00 | 46 | 1006.1 |
| 20260503215539 | 47 | 332 | 8.7 | 16.5 | 0.00 | 0.03 | 0.00 | 45 | 1006.0 |
| 20260503215038 | 47 | 284 | 5.2 | 14.8 | 0.00 | 0.03 | 0.00 | 47 | 1006.1 |
| 20260503214547 | 47 | 312 | 7.8 | 14.8 | 0.00 | 0.03 | 0.00 | 46 | 1006.1 |
| 20260503214038 | 47 | 300 | 7.8 | 14.8 | 0.00 | 0.03 | 0.00 | 47 | 1006.2 |
| 20260503213539 | 47 | 296 | 7.0 | 13.0 | 0.00 | 0.03 | 0.00 | 47 | 1006.2 |
| 20260503213048 | 47 | 325 | 5.2 | 13.0 | 0.00 | 0.03 | 0.00 | 48 | 1006.2 |
| 20260503212538 | 47 | 327 | 5.2 | 13.0 | 0.00 | 0.03 | 0.00 | 48 | 1006.2 |
| 20260503212037 | 47 | 306 | 6.1 | 13.0 | 0.00 | 0.03 | 0.00 | 48 | 1006.2 |
| 20260503211550 | 47 | 323 | 6.1 | 12.2 | 0.00 | 0.03 | 0.00 | 47 | 1006.1 |
| 20260503211038 | 47 | 284 | 3.5 | 12.2 | 0.00 | 0.03 | 0.00 | 48 | 1006.1 |
| 20260503210539 | 47 | 315 | 6.1 | 12.2 | 0.00 | 0.03 | 0.00 | 47 | 1006.1 |
| 20260503210049 | 47 | 307 | 6.1 | 10.4 | 0.00 | 0.03 | 0.00 | 49 | 1006.0 |
| 20260503205539 | 47 | 284 | 6.1 | 14.8 | 0.00 | 0.03 | 0.00 | 47 | 1006.1 |
| 20260503205039 | 46 | 265 | 6.1 | 19.1 | 0.00 | 0.03 | 0.00 | 49 | 1006.1 |
| 20260503204609 | 46 | 309 | 6.1 | 19.1 | 0.00 | 0.03 | 0.00 | 48 | 1006.1 |
| 20260503204038 | 46 | 299 | 9.6 | 19.1 | 0.00 | 0.03 | 0.00 | 47 | 1006.1 |
| 20260503203539 | 47 | 302 | 9.6 | 16.5 | 0.00 | 0.03 | 0.00 | 47 | 1006.1 |
| 20260503203049 | 48 | 300 | 3.5 | 13.9 | 0.00 | 0.03 | 0.00 | 48 | 1006.1 |
| 20260503202538 | 47 | 288 | 7.0 | 13.9 | 0.00 | 0.03 | 0.00 | 49 | 1006.2 |
| 20260503202037 | 46 | 323 | 6.1 | 13.9 | 0.00 | 0.03 | 0.00 | 51 | 1006.1 |
| 20260503201546 | 45 | 308 | 7.8 | 13.9 | 0.00 | 0.03 | 0.00 | 50 | 1006.0 |
| 20260503201038 | 45 | 284 | 10.4 | 13.9 | 0.00 | 0.03 | 0.00 | 49 | 1006.2 |
| 20260503200538 | 46 | 311 | 7.0 | 14.8 | 0.00 | 0.03 | 0.00 | 50 | 1006.2 |
| 20260503200047 | 46 | 302 | 6.1 | 15.6 | 0.00 | 0.03 | 0.00 | 50 | 1006.2 |
| 20260503195538 | 46 | 306 | 7.8 | 15.6 | 0.00 | 0.03 | 0.00 | 49 | 1006.2 |
| 20260503195039 | 46 | 301 | 8.7 | 15.6 | 0.00 | 0.03 | 0.00 | 51 | 1006.4 |
| 20260503194549 | 45 | 273 | 9.6 | 15.6 | 0.00 | 0.03 | 0.00 | 50 | 1006.4 |
| 20260503194039 | 45 | 272 | 7.8 | 14.8 | 0.00 | 0.03 | 0.00 | 50 | 1006.4 |
| 20260503193539 | 45 | 298 | 6.1 | 16.5 | 0.00 | 0.03 | 0.00 | 51 | 1006.5 |
| 20260503193051 | 45 | 254 | 7.0 | 16.5 | 0.00 | 0.03 | 0.00 | 50 | 1006.4 |
| 20260503192539 | 45 | 309 | 8.7 | 20.0 | 0.00 | 0.03 | 0.00 | 49 | 1006.5 |
| 20260503192039 | 45 | 246 | 9.6 | 20.0 | 0.00 | 0.03 | 0.00 | 48 | 1006.5 |
| 20260503191608 | 46 | 278 | 7.8 | 17.4 | 0.00 | 0.03 | 0.00 | 48 | 1006.5 |
| 20260503191041 | 47 | 300 | 5.2 | 17.4 | 0.00 | 0.03 | 0.00 | 47 | 1006.4 |
| 20260503190539 | 47 | 281 | 5.2 | 13.9 | 0.00 | 0.03 | 0.00 | 50 | 1006.4 |
| 20260503190048 | 46 | 261 | 4.3 | 13.0 | 0.00 | 0.03 | 0.00 | 50 | 1006.4 |
| 20260503185537 | 46 | 352 | 7.8 | 13.9 | 0.00 | 0.03 | 0.00 | 49 | 1006.5 |
| 20260503185039 | 46 | 5 | 7.0 | 18.2 | 0.00 | 0.03 | 0.00 | 48 | 1006.4 |
| 20260503184547 | 46 | 346 | 9.6 | 18.2 | 0.00 | 0.03 | 0.00 | 47 | 1006.5 |
| 20260503184041 | 46 | 309 | 9.6 | 18.2 | 0.00 | 0.03 | 0.00 | 46 | 1006.5 |
| 20260503183538 | 46 | 313 | 6.1 | 19.1 | 0.00 | 0.03 | 0.00 | 48 | 1006.4 |
| 20260503183052 | 46 | 313 | 9.6 | 19.1 | 0.00 | 0.03 | 0.00 | 46 | 1006.5 |
| 20260503182536 | 46 | 312 | 7.8 | 16.5 | 0.00 | 0.03 | 0.00 | 47 | 1006.4 |
| 20260503182041 | 46 | 321 | 8.7 | 18.2 | 0.00 | 0.03 | 0.00 | 46 | 1006.5 |
| 20260503181552 | 47 | 302 | 7.0 | 18.2 | 0.00 | 0.03 | 0.00 | 45 | 1006.4 |
| 20260503181039 | 47 | 330 | 7.0 | 14.8 | 0.00 | 0.03 | 0.00 | 43 | 1006.2 |
| 20260503180539 | 47 | 325 | 7.8 | 17.4 | 0.00 | 0.03 | 0.00 | 44 | 1006.2 |
| 20260503180056 | 46 | 333 | 9.6 | 17.4 | 0.00 | 0.03 | 0.00 | 45 | 1006.4 |
| 20260503175538 | 45 | 349 | 7.0 | 14.8 | 0.00 | 0.05 | 0.00 | 46 | 1006.5 |
| 20260503175038 | 45 | 322 | 7.0 | 18.2 | 0.00 | 0.05 | 0.00 | 45 | 1006.6 |
| 20260503174552 | 45 | 35 | 8.7 | 18.2 | 0.00 | 0.05 | 0.00 | 45 | 1006.7 |
| 20260503174039 | 44 | 325 | 8.7 | 15.6 | 0.00 | 0.05 | 0.00 | 47 | 1006.6 |
| 20260503173539 | 45 | 331 | 6.1 | 16.5 | 0.00 | 0.05 | 0.00 | 51 | 1006.6 |
| 20260503173044 | 45 | 333 | 6.1 | 16.5 | 0.00 | 0.05 | 0.00 | 52 | 1006.5 |
| 20260503172537 | 45 | 300 | 7.8 | 16.5 | 0.00 | 0.05 | 0.00 | 51 | 1006.5 |
| 20260503172038 | 45 | 300 | 7.8 | 17.4 | 0.00 | 0.05 | 0.00 | 50 | 1006.4 |
| 20260503171550 | 45 | 324 | 9.6 | 17.4 | 0.00 | 0.05 | 0.00 | 47 | 1006.5 |
| 20260503171039 | 46 | 325 | 7.0 | 17.4 | 0.00 | 0.05 | 0.00 | 50 | 1006.5 |
| 20260503170540 | 46 | 332 | 7.0 | 16.5 | 0.00 | 0.05 | 0.00 | 48 | 1006.6 |